Location: Appleton
(44.2618°N, 88.4157°W)
Time: 19:58:08
(UTC+00:00)

Tiros 1 despin weight - Pass Details

Date: 02 March 2021
Orbit: 593 x 641 km, 48.2° (Epoch: 12 April)

Event Time Altitude Azimuth Distance (km) Brightness Sun altitude
Exits shadow 11:32:52 14° 285° (WNW) 1,787 ? -10.8°
Maximum altitude 11:36:44 51° 212° (SSW) 804 ? -10.1°
Drops below altitude 10° 11:41:16 10° 137° (SE) 2,025 ? -9.3°
Sets 11:43:38 0° 132° (SE) 2,929 ? -8.8°
